Location: High Meadows Obseravatory
(40.7417°N, 111.5713°W)
Time: 22:26:33
(UTC-06:00)

N. Korean satellite - Visible Passes

Search period start: 25 October 2021 00:00
Search period end: 04 November 2021 00:00
Orbit: 450 x 495 km, 97.3° (Epoch: 25 October)

Date Brightness Start Highest point End Pass type
(mag) Time Alt. Az. Time Alt. Az. Time Alt. Az.
25 Oct 6.6 06:57:57 10° N 07:01:33 59° WNW 07:05:05 10° SSW visible
25 Oct 10.5 19:07:28 10° WSW 19:08:27 11° W 19:09:27 10° WNW visible
26 Oct 7.3 06:29:53 10° NNE 06:33:28 56° E 06:36:59 10° S visible
27 Oct 9.1 06:02:16 10° NE 06:05:14 24° E 06:08:11 10° SSE visible
28 Oct 10.2 05:36:03 10° ENE 05:36:55 11° E 05:37:46 10° ESE visible
28 Oct 6.9 07:06:53 10° N 07:10:21 44° WNW 07:13:46 10° SSW visible
29 Oct 6.7 06:38:39 10° NNE 06:42:17 75° ESE 06:45:50 10° S visible
30 Oct 8.6 06:10:51 10° NNE 06:14:04 30° E 06:17:15 10° SSE visible
31 Oct 9.9 05:43:51 10° ENE 05:45:45 14° E 05:47:37 10° SE visible
31 Oct 7.2 07:15:48 10° N 07:19:04 33° WNW 07:22:18 10° SW visible
01 Nov 6.4 06:47:24 10° N 06:51:01 82° W 06:54:33 10° SSW visible
01 Nov 10.0 18:55:38 10° SW 18:57:46 15° W 18:59:56 10° NW visible
02 Nov 8.0 06:19:25 10° NNE 06:22:49 39° E 06:26:09 10° S visible
03 Nov 9.5 05:52:02 10° NE 05:54:30 17° E 05:56:55 10° SE visible
03 Nov 7.5 07:24:40 10° NNW 07:27:42 26° WNW 07:30:41 10° SW visible
